Skip Page Navigation
NASA JPL Caltech
NASA Logo - Jet Propulsion Laboratory + View the NASA Portal
+ Center for Near-Earth Object Studies
JPL Home Earth Solar System Stars & Galaxies Technology
JPL Solar System Dynamics
BODIES ORBITS EPHEMERIDES TOOLS PHYSICAL DATA DISCOVERY FAQ SITE MAP
JPL Small-Body Database Browser
Search: [ help ]  
134101 (2004 XQ133)
Classification: Main-belt Asteroid          SPK-ID: 2134101
Ephemeris | Orbit Diagram | Orbital Elements | Mission Design | Physical Parameters | Discovery Circumstances ]

[ show orbit diagram ]
Orbital Elements at Epoch 2459200.5 (2020-Dec-17.0) TDB
Reference: JPL 21 (heliocentric ecliptic J2000)
 Element Value Uncertainty (1-sigma)   Units 
e .08624814855693298 3.6872e-08  
a 2.961924182552323 2.2422e-08 au
q 2.706463705641178 1.139e-07 au
i 6.307681350496321 4.5927e-06 deg
node 356.2410467286538 4.0654e-05 deg
peri 75.36550169211706 5.1818e-05 deg
M 45.76901558980997 3.0121e-05 deg
tp 2458963.783569145364
(2020-Apr-24.28356915)
0.00015558 TDB
period 1861.912781157608
5.10
2.1142e-05
5.788e-08
d
yr
n .1933495508721826 2.1955e-09 deg/d
Q 3.217384659463469 2.4355e-08 au
  Orbit Determination Parameters
   # obs. used (total)      663  
   data-arc span      7713 days (21.12 yr)  
   first obs. used      1999-12-12  
   last obs. used      2021-01-23  
   planetary ephem.      DE431  
   SB-pert. ephem.      SB431-N16  
   condition code      0  
   norm. resid. RMS      .50117  
   source      ORB  
   producer      Otto Matic  
   solution date      2021-Feb-24 09:59:11  

Additional Information
 Earth MOID = 1.72896 au 
 Jupiter MOID = 2.01651 au 
 T_jup = 3.251 
[ show covariance matrix ]

Ephemeris | Orbit Diagram | Orbital Elements | Mission Design | Physical Parameters | Discovery Circumstances ]

Physical Parameter Table
Parameter Symbol Value Units Sigma Reference Notes
absolute magnitude H 15.0   n/a MPO453825  
diameter diameter 4.553 km 0.098 urn:nasa:pds:neowise_diameters_albedos::2.0[mainbelt] (http://adsabs.harvard.edu/abs/2011ApJ...741...68M)  
geometric albedo albedo 0.093   0.013 urn:nasa:pds:neowise_diameters_albedos::2.0[mainbelt] (http://adsabs.harvard.edu/abs/2011ApJ...741...68M)  

134101 (2004 XQ133)          Discovered 2004-Dec-15 by LINEAR at Socorro
Reference: 20060711/Numbers.arcLast Updated: 2006-07-17
Ephemeris | Orbit Diagram | Orbital Elements | Mission Design | Physical Parameters | Discovery Circumstances ]
ABOUT SSD CREDITS/AWARDS PRIVACY/COPYRIGHT GLOSSARY LINKS
FirstGov 2021-Apr-10 13:04 UT
(server date/time)  
NASA Home Page
Site Manager:   Ryan S. Park
Webmaster  Alan B. Chamberlin